HB9EKO-12 Weather Reports


time (UTC)temp
C
wind
direction
speed
KPH
gust
KPH
rain 1hr
cm
rain 24hr
cm
rain mn
cm
humidity
%
barometer
mb
20260831003438 19 0 0.0 0.0 0.00 0.00 0.00 10 1018.0
20260831001933 18 0 0.0 0.0 0.00 0.00 0.00 10 1018.0
20260831000428 19 0 0.0 0.0 0.00 0.00 0.00 89 1018.0
20260830234922 20 0 0.0 0.0 0.00 0.00 0.00 82 1017.0
20260830233417 20 0 0.0 0.0 0.00 0.00 0.00 85 1016.0
20260830231912 19 0 0.0 0.0 0.00 0.00 0.00 87 1016.0
20260830230407 19 0 0.0 0.0 0.00 0.00 0.00 86 1015.0
20260830224901 20 0 0.0 0.0 0.00 0.00 0.00 81 1015.0
20260830223356 21 0 0.0 0.0 0.00 0.00 0.00 77 1015.0
20260830221851 21 0 0.0 0.0 0.00 0.00 0.00 77 1016.0
20260830220346 21 0 0.0 0.0 0.00 0.00 0.00 77 1016.0
20260830214840 21 0 0.0 0.0 0.00 0.00 0.00 73 1016.0
20260830213335 22 0 0.0 0.0 0.00 0.00 0.00 72 1016.0
20260830211830 23 0 0.0 0.0 0.00 0.00 0.00 68 1016.0
20260830210325 22 0 0.0 0.0 0.00 0.00 0.00 68 1016.0
20260830204820 22 0 0.0 0.0 0.00 0.00 0.00 68 1016.0
20260830203314 23 0 0.0 0.0 0.00 0.00 0.00 66 1016.0
20260830201809 23 0 0.0 0.0 0.00 0.00 0.00 64 1016.0
20260830200304 23 0 0.0 0.0 0.00 0.00 0.00 64 1016.0
20260830194759 23 0 0.0 0.0 0.00 0.00 0.00 63 1016.0
20260830193253 24 0 0.0 0.0 0.00 0.00 0.00 62 1016.0
20260830191748 25 0 0.0 0.0 0.00 0.00 0.00 58 1016.0
20260830190243 26 0 0.0 0.0 0.00 0.00 0.00 54 1016.0
20260830184738 25 0 0.0 0.0 0.00 0.00 0.00 55 1016.0
20260830183232 25 0 0.0 0.0 0.00 0.00 0.00 55 1016.0
20260830181727 25 0 0.0 0.0 0.00 0.00 0.00 53 1016.0
20260830180222 25 0 0.0 0.0 0.00 0.00 0.00 51 1016.0
20260830174717 26 0 0.0 0.0 0.00 0.00 0.00 50 1016.0
20260830173211 26 0 0.0 0.0 0.00 0.00 0.00 48 1016.0
20260830171706 28 0 0.0 0.0 0.00 0.00 0.00 43 1016.0
20260830170201 31 0 0.0 0.0 0.00 0.00 0.00 38 1015.0
20260830164656 31 0 0.0 0.0 0.00 0.00 0.00 38 1015.0
20260830163150 28 0 0.0 0.0 0.00 0.00 0.00 42 1016.0
20260830161645 29 0 0.0 0.0 0.00 0.00 0.00 39 1016.0
20260830160140 32 0 0.0 0.0 0.00 0.00 0.00 34 1015.0
20260830154635 35 0 0.0 0.0 0.00 0.00 0.00 30 1016.0
20260830153129 32 0 0.0 0.0 0.00 0.00 0.00 34 1016.0
20260830151624 33 0 0.0 0.0 0.00 0.00 0.00 31 1016.0
20260830150119 35 0 0.0 0.0 0.00 0.00 0.00 29 1016.0
20260830144614 33 0 0.0 0.0 0.00 0.00 0.00 33 1016.0
20260830143108 31 0 0.0 0.0 0.00 0.00 0.00 35 1016.0
20260830141603 30 0 0.0 0.0 0.00 0.00 0.00 38 1016.0
20260830140058 28 0 0.0 0.0 0.00 0.00 0.00 40 1016.0
20260830134553 28 0 0.0 0.0 0.00 0.00 0.00 44 1016.0
20260830133048 28 0 0.0 0.0 0.00 0.00 0.00 45 1017.0
20260830131542 27 0 0.0 0.0 0.00 0.00 0.00 45 1017.0
20260830130037 27 0 0.0 0.0 0.00 0.00 0.00 47 1017.0
20260830124532 27 0 0.0 0.0 0.00 0.00 0.00 46 1017.0
20260830123027 26 0 0.0 0.0 0.00 0.00 0.00 47 1017.0
20260830121521 26 0 0.0 0.0 0.00 0.00 0.00 47 1017.0
20260830120016 26 0 0.0 0.0 0.00 0.00 0.00 48 1017.0
20260830114511 25 0 0.0 0.0 0.00 0.00 0.00 48 1017.0
20260830113006 25 0 0.0 0.0 0.00 0.00 0.00 50 1017.0
20260830111500 25 0 0.0 0.0 0.00 0.00 0.00 50 1017.0
20260830105955 25 0 0.0 0.0 0.00 0.00 0.00 51 1018.0
20260830104450 25 0 0.0 0.0 0.00 0.00 0.00 51 1018.0
20260830102945 24 0 0.0 0.0 0.00 0.00 0.00 53 1018.0
20260830101439 24 0 0.0 0.0 0.00 0.00 0.00 52 1018.0
20260830095934 24 0 0.0 0.0 0.00 0.00 0.00 53 1018.0
20260830094429 23 0 0.0 0.0 0.00 0.00 0.00 52 1018.0
20260830092924 23 0 0.0 0.0 0.00 0.00 0.00 55 1018.0
20260830091418 23 0 0.0 0.0 0.00 0.00 0.00 55 1018.0
20260830085913 22 0 0.0 0.0 0.00 0.00 0.00 56 1018.0
20260830084408 22 0 0.0 0.0 0.00 0.00 0.00 58 1018.0
20260830082903 22 0 0.0 0.0 0.00 0.00 0.00 60 1018.0
20260830081357 21 0 0.0 0.0 0.00 0.00 0.00 62 1018.0
20260830074347 21 0 0.0 0.0 0.00 0.00 0.00 72 1019.0
20260830072842 20 0 0.0 0.0 0.00 0.00 0.00 74 1018.0
20260830071336 20 0 0.0 0.0 0.00 0.00 0.00 76 1018.0
20260830065831 20 0 0.0 0.0 0.00 0.00 0.00 78 1018.0
20260830064326 19 0 0.0 0.0 0.00 0.00 0.00 79 1018.0
20260830062821 18 0 0.0 0.0 0.00 0.00 0.00 79 1018.0
20260830061316 18 0 0.0 0.0 0.00 0.00 0.00 81 1019.0
20260830055810 17 0 0.0 0.0 0.00 0.00 0.00 82 1018.0
20260830054305 17 0 0.0 0.0 0.00 0.00 0.00 83 1018.0
20260830052800 17 0 0.0 0.0 0.00 0.00 0.00 83 1018.0
20260830051255 18 0 0.0 0.0 0.00 0.00 0.00 82 1018.0
20260830045749 17 0 0.0 0.0 0.00 0.00 0.00 81 1018.0
20260830044244 18 0 0.0 0.0 0.00 0.00 0.00 79 1018.0
20260830042739 18 0 0.0 0.0 0.00 0.00 0.00 79 1018.0
20260830041234 18 0 0.0 0.0 0.00 0.00 0.00 78 1018.0
20260830035728 18 0 0.0 0.0 0.00 0.00 0.00 77 1018.0
20260830034223 18 0 0.0 0.0 0.00 0.00 0.00 76 1018.0
20260830032718 18 0 0.0 0.0 0.00 0.00 0.00 74 1018.0
20260830031213 18 0 0.0 0.0 0.00 0.00 0.00 73 1018.0
20260830025707 18 0 0.0 0.0 0.00 0.00 0.00 73 1018.0
20260830024202 19 0 0.0 0.0 0.00 0.00 0.00 72 1018.0
20260830022657 19 0 0.0 0.0 0.00 0.00 0.00 71 1018.0
20260830021152 19 0 0.0 0.0 0.00 0.00 0.00 70 1018.0
20260830015646 18 0 0.0 0.0 0.00 0.00 0.00 73 1018.0
20260830014141 19 0 0.0 0.0 0.00 0.00 0.00 71 1018.0
20260830012636 19 0 0.0 0.0 0.00 0.00 0.00 71 1018.0
20260830011131 19 0 0.0 0.0 0.00 0.00 0.00 71 1018.0
20260830005626 18 0 0.0 0.0 0.00 0.00 0.00 74 1018.0